sat.trackr.live / text

‹ back to catalog

STARLINK-34498

NORAD 64421 · 2025-129K

PAYLOAD ACTIVE UNKNOWN

§ Identity

Operator
Country
US
Launch date
2025-06-17
Launch site
AFWTR
Launch vehicle
Mass (kg)
RCS (m²)

Purposes: comms

External: N2YO · Heavens-Above · Gunter

§ Orbital elements

Epoch: 2026-09-20T16:00:01.999584Z

Period
94.14 min
Inclination
70.0001°
Eccentricity
0.0003348
Mean motion
15.29576742 rev/d
Perigee alt
474.8 km
Apogee alt
479.4 km
Semi-major
6,855.2 km
B*
-3.6995e-4
RAAN
300.3592°
Arg perigee
275.6384°
Mean anomaly
152.2076°
Rev number
573

§ Raw data

STARLINK-344981 64421U 25129K   26263.66668981 -.00010746  00000+0 -36995-3 0  99992 64421  70.0001 300.3592 0003348 275.6384 152.2076 15.29576742  5738

JSON: /api/v1/satellites/64421 · /tle

For live sub-satellite position, see the globe view (requires WebGL).

§ Visibility from observer

Set your observer location to see the next 7 days of passes ≥ 10°. The values pass through the URL so the page stays shareable.

No JS? Fill the form by hand. The geolocation button needs JavaScript.